Theta_e
336 335 334 334 334 333 333 332 331 329 328 327 327 328 327 327 327 328 328 328 328 329 328 329 330 330 330 330 331 332 332 333 333 333 333 333 334 334 334 334 333 333 334 334 334 334 334 334 334 333 334 334 335 336 335 334 335 335 335 334 333 333 334
334 334 333 333 333 333 332 330 329 328 327 326 326 326 325 326 326 325 325 325 325 326 326 326 327 327 327 327 328 329 329 330 331 332 333 333 333 333 334 334 334 334 334 334 334 333 334 335 335 334 333 334 336 336 335 334 335 335 336 336 335 335 336
333 333 333 333 332 331 330 328 327 326 326 325 325 324 323 323 324 323 323 323 323 323 323 323 324 324 324 325 325 326 327 327 328 329 329 330 331 331 332 333 334 333 334 334 333 333 333 335 334 333 332 333 334 334 334 334 335 335 335 336 337 337 336
333 332 332 331 330 329 327 327 326 325 324 324 323 322 321 321 322 321 320 321 321 321 321 321 321 321 322 322 323 324 325 325 325 326 326 326 327 328 329 330 331 331 332 333 333 333 333 334 333 332 332 332 332 332 333 333 334 335 336 336 337 337 335
330 330 330 328 327 326 325 324 324 324 323 322 321 320 320 320 320 320 319 319 319 319 319 319 319 319 320 320 321 322 322 322 323 323 323 323 324 325 325 326 327 328 329 330 331 332 333 334 333 332 332 331 332 331 332 332 331 333 335 335 335 336 335
327 327 326 325 324 324 323 322 322 322 321 320 320 319 318 318 319 318 318 318 318 317 317 317 317 318 318 318 320 320 320 320 320 320 321 321 322 323 323 323 324 324 325 326 327 329 330 332 332 332 332 331 331 331 331 331 329 330 332 332 334 335 335
324 323 323 322 322 322 321 321 321 320 320 319 318 317 317 317 317 317 316 316 316 316 316 315 316 316 316 317 318 318 318 317 317 317 318 320 320 320 321 321 321 322 322 323 324 326 327 329 330 331 332 332 332 331 331 331 329 329 330 330 332 333 333
321 320 320 320 320 320 319 319 319 319 318 318 317 316 316 316 316 316 315 315 314 314 314 314 314 315 314 315 316 315 315 315 314 315 316 317 317 318 318 319 319 320 321 322 322 323 324 325 326 327 328 330 331 331 330 330 330 330 330 329 330 331 333
319 319 318 318 318 318 318 318 317 317 317 316 316 315 315 315 314 314 314 314 314 314 314 313 314 314 314 314 314 314 313 313 313 314 315 315 315 316 316 317 317 318 319 320 320 321 321 322 323 324 325 327 329 329 329 329 330 330 330 329 329 330 333
318 317 317 317 317 317 317 316 316 316 315 315 314 314 314 313 313 313 313 313 313 313 313 313 313 313 313 313 313 313 312 312 312 313 313 314 314 314 315 315 316 316 317 317 318 318 319 319 321 322 323 324 326 327 328 329 329 329 330 330 329 329 331
316 316 316 316 316 316 315 315 315 314 314 314 314 314 313 313 312 313 313 312 312 312 312 312 312 312 313 312 312 312 311 311 312 312 313 313 313 313 314 314 315 315 316 316 316 317 317 318 319 320 321 322 323 324 326 327 327 327 329 330 330 330 330
315 315 315 315 315 315 314 314 314 314 314 314 313 313 312 312 312 312 312 312 312 312 312 311 312 312 311 311 311 311 310 310 311 311 312 312 312 312 313 313 314 314 315 314 314 315 316 317 317 317 318 319 320 321 322 324 324 324 326 328 329 330 330
314 314 314 314 314 314 313 313 313 313 313 312 312 312 311 311 311 311 311 310 310 310 310 310 311 311 310 310 310 309 309 310 310 311 311 311 312 312 312 312 313 313 313 313 313 313 313 314 314 314 314 315 316 317 318 321 322 321 322 324 325 327 328
314 313 313 313 313 313 313 313 313 312 312 311 311 311 310 310 310 310 309 309 309 308 309 309 309 310 310 309 309 309 309 309 309 310 310 311 311 311 311 311 311 311 311 311 311 311 311 311 310 310 310 311 312 313 315 316 318 318 319 321 322 323 325
313 312 313 312 313 313 313 313 312 311 311 310 310 310 310 310 309 308 308 307 307 307 307 307 308 309 309 309 309 309 308 308 309 309 310 310 310 310 310 310 310 309 309 309 309 308 308 307 307 307 307 308 309 310 311 312 314 315 317 318 319 321 322
312 312 312 312 312 312 312 312 311 311 310 310 310 309 309 308 308 307 307 306 305 305 305 305 306 307 308 308 309 308 308 308 308 309 309 309 309 309 309 309 308 308 307 307 307 306 306 305 305 305 305 306 306 307 308 309 310 312 314 315 316 318 320
311 312 312 312 311 311 311 311 310 310 310 309 309 308 308 307 306 306 305 305 304 304 304 304 304 305 306 307 308 308 308 308 308 308 308 308 308 308 307 307 307 306 306 305 305 304 304 303 303 303 304 304 305 305 306 307 308 309 311 312 314 315 318
311 311 311 311 310 310 310 310 310 309 309 309 308 308 307 306 305 305 304 304 303 303 303 302 303 304 305 306 307 307 307 307 307 307 307 307 307 306 306 306 306 305 304 304 303 303 302 302 302 302 302 303 303 304 305 305 306 307 308 310 312 313 315
310 310 310 310 310 309 309 309 309 308 308 307 307 307 306 305 305 304 303 303 303 302 301 301 301 302 303 305 307 306 306 306 306 306 305 305 305 305 305 304 304 304 303 303 302 302 301 301 301 301 301 302 302 303 303 304 304 306 307 308 309 311 314
310 309 309 309 308 308 308 308 308 307 307 307 306 306 305 305 304 304 303 302 302 301 300 299 299 300 302 304 306 306 306 305 305 305 305 304 304 304 303 303 303 303 302 302 301 301 301 300 300 300 300 301 301 301 302 303 304 305 306 307 308 310 312
309 308 308 308 307 307 307 306 307 306 306 306 306 305 305 305 304 303 303 302 301 300 299 299 298 299 300 302 304 305 305 305 304 304 304 303 303 303 303 302 302 302 302 301 301 300 300 299 299 299 299 300 300 301 302 303 304 305 306 307 308 309 310
308 307 307 307 307 306 306 306 306 305 305 305 305 305 305 304 304 303 303 302 301 300 298 298 298 298 299 300 303 305 304 304 304 303 303 303 303 302 302 302 302 301 301 300 300 299 299 298 297 298 299 299 300 301 302 303 304 305 306 307 308 309 309
307 307 306 306 306 305 305 305 305 305 305 305 305 305 305 304 304 303 302 302 301 300 297 297 298 299 299 300 302 304 304 303 303 302 302 302 302 302 301 301 301 301 300 300 299 299 298 297 297 297 298 299 300 301 302 303 304 305 306 307 307 307 308
306 306 306 305 305 305 305 305 305 305 305 305 305 305 305 305 304 303 302 301 301 299 297 297 298 299 300 300 301 303 303 303 302 302 302 302 301 301 301 300 300 300 300 300 299 298 297 297 297 298 299 300 301 301 302 302 303 304 305 305 304 305 306
305 305 305 305 304 304 304 305 304 305 305 305 305 305 305 305 304 304 302 301 300 299 297 297 298 299 300 300 301 302 303 302 302 301 301 301 301 300 300 299 300 300 299 299 298 297 296 296 296 298 300 301 301 301 301 301 302 302 302 303 303 304 304
305 305 304 304 304 304 304 304 304 304 304 304 304 304 305 305 304 304 303 301 300 298 296 296 298 299 300 300 301 302 302 302 301 301 301 301 300 300 299 299 299 299 299 299 297 295 295 295 296 298 300 301 301 301 301 301 300 300 300 301 302 302 303
304 304 304 304 304 304 304 304 304 304 304 304 304 304 304 304 304 304 303 301 300 297 295 296 298 299 300 301 301 302 302 302 301 301 301 300 300 300 299 299 299 299 298 298 296 294 294 295 297 299 300 300 301 301 301 301 300 299 299 299 300 301 301
304 304 304 304 304 304 304 304 303 303 303 303 303 303 303 304 304 304 303 302 300 298 295 295 297 299 300 301 301 302 302 301 301 301 301 300 300 300 299 299 298 298 298 297 295 294 294 295 297 299 299 299 300 300 300 300 299 298 298 298 298 300 300
304 303 303 304 304 304 304 303 303 303 303 303 303 303 303 303 303 303 303 302 300 298 295 295 296 298 300 301 302 302 302 301 301 301 301 300 300 300 299 298 298 298 297 296 295 295 295 296 298 298 298 298 299 299 299 298 298 297 297 297 298 299 300
303 303 303 303 303 304 303 303 303 303 303 303 303 303 302 302 301 302 302 302 301 299 296 294 295 297 299 300 301 302 302 302 301 301 301 301 300 300 299 298 297 297 297 296 295 295 295 297 298 298 298 298 298 297 298 297 297 297 297 297 298 298 299
303 303 303 303 303 303 303 303 303 303 303 303 303 303 303 302 301 300 300 300 301 300 296 294 294 296 297 299 301 302 302 302 301 301 301 301 300 300 300 298 297 296 296 296 295 295 295 296 298 298 298 298 298 297 297 297 297 297 297 297 298 298 299
302 302 303 303 303 303 303 303 303 303 303 303 302 302 303 302 302 301 300 299 299 300 298 295 294 295 296 297 300 301 301 301 302 301 300 300 300 300 299 299 297 295 296 296 296 296 295 296 297 298 297 297 297 297 297 297 297 296 296 296 297 297 298
302 302 302 302 302 302 303 303 303 303 302 302 302 302 302 302 302 302 301 299 298 298 298 297 294 294 295 295 297 299 300 300 301 301 301 300 299 299 299 299 297 296 295 296 296 296 296 296 297 297 297 296 296 296 297 298 297 296 296 295 296 297 297
302 302 302 302 302 302 302 302 302 303 303 303 303 303 302 302 302 302 302 301 299 298 298 297 296 295 294 294 295 296 298 299 299 301 301 300 299 299 298 298 297 295 295 296 296 297 296 296 296 297 297 297 297 297 298 298 298 297 296 296 296 297 297
301 301 301 302 302 302 302 302 302 302 303 303 303 303 303 303 302 302 302 302 301 300 299 298 297 296 295 295 294 295 296 296 297 299 300 300 299 298 298 297 297 295 295 296 296 297 297 296 296 297 297 297 298 298 298 298 298 298 297 296 297 297 297
301 301 301 301 302 302 302 302 302 302 303 303 303 303 303 303 302 302 302 301 301 301 300 299 298 296 296 296 296 295 295 295 296 298 300 300 299 298 297 297 296 295 295 296 296 297 297 297 296 296 297 297 298 299 300 299 298 298 298 298 297 297 297
300 300 300 301 301 302 302 302 302 302 302 302 302 302 302 302 302 302 301 301 300 300 300 300 298 297 296 297 297 296 296 296 296 296 298 299 299 298 297 296 296 295 295 296 296 297 297 297 296 296 296 297 298 299 300 300 299 298 298 298 298 298 298
Wind_Speed
10 9 7 7 7 7 8 8 8 8 8 8 9 9 9 9 8 9 9 9 9 9 10 10 10 11 12 13 14 14 14 14 14 15 15 15 14 13 12 12 14 14 14 14 12 9 8 8 9 10 10 10 13 15 16 17 17 16 17 18 21 23 24
9 8 7 7 7 7 8 8 7 8 8 8 9 9 9 9 9 9 9 9 9 9 10 10 10 11 12 13 14 14 14 14 15 15 16 16 16 16 15 15 15 15 14 14 14 12 10 10 9 8 10 10 11 15 17 18 18 16 15 17 20 21 24
7 7 7 7 7 7 8 8 7 7 8 8 8 8 9 9 8 9 9 9 9 9 10 11 11 12 12 12 13 13 13 14 14 15 17 17 17 18 17 17 16 16 14 12 13 13 11 10 9 9 12 12 11 13 14 16 18 18 17 17 18 20 23
7 7 7 7 7 7 7 7 7 7 7 7 7 8 9 9 8 9 9 9 9 9 10 11 11 12 12 12 12 12 12 13 14 15 16 16 16 18 18 18 18 17 16 14 15 16 13 11 10 10 12 15 15 15 14 14 15 16 17 17 17 18 21
8 7 8 8 7 7 7 7 7 6 6 7 7 8 9 9 9 9 9 9 10 10 10 11 11 11 12 12 11 12 12 13 13 14 14 15 16 17 17 18 18 19 18 18 18 19 17 16 14 10 12 17 15 15 17 16 15 16 17 17 17 17 18
9 8 8 8 7 7 7 7 7 6 6 7 7 8 9 9 9 9 9 9 10 10 10 11 11 11 12 11 11 11 12 12 13 14 14 15 15 15 16 17 17 18 19 19 20 20 19 20 18 12 14 17 14 14 18 18 16 17 16 16 17 18 17
9 9 8 8 7 7 7 7 7 7 7 7 7 8 8 8 8 9 9 9 10 10 10 11 11 11 11 11 10 11 12 12 13 14 14 14 14 15 16 16 17 17 17 18 19 20 19 20 19 16 15 16 15 16 17 19 18 16 15 15 15 17 17
9 9 9 9 8 8 8 8 8 7 7 7 7 7 8 8 8 8 9 9 10 10 10 11 11 11 11 10 10 11 12 12 13 13 13 13 14 15 15 16 16 16 16 17 18 18 19 19 20 20 17 13 13 13 13 16 18 16 17 17 15 16 16
9 9 9 9 9 9 9 9 8 8 7 7 7 7 8 8 8 8 8 9 10 10 10 11 11 11 11 10 10 11 12 13 13 13 13 13 14 15 15 16 16 16 16 17 18 18 19 19 19 20 19 16 13 11 10 12 13 14 19 20 17 16 16
10 11 10 10 10 9 9 9 8 8 7 7 7 7 7 8 8 8 9 9 10 11 11 11 11 11 11 10 11 11 12 13 14 13 13 14 15 15 15 16 16 16 16 17 17 17 18 19 19 19 19 18 16 12 10 10 9 12 18 21 20 18 15
11 11 11 10 10 10 10 9 8 8 8 7 7 7 7 8 8 9 9 10 10 11 11 11 11 11 11 11 11 11 12 14 14 13 14 15 15 15 16 17 16 16 16 17 18 18 17 18 18 19 18 19 18 14 11 10 10 14 19 20 21 21 18
12 12 11 11 10 10 10 10 9 8 8 7 8 8 8 8 9 9 10 10 10 11 11 11 11 11 11 11 12 12 13 15 15 14 15 15 15 16 16 17 17 17 18 18 18 18 18 18 19 19 19 19 19 18 17 13 10 15 21 21 22 24 22
12 12 11 11 10 11 10 10 9 8 8 8 8 8 9 9 9 10 10 11 11 12 12 12 12 12 12 12 12 12 14 15 15 15 15 15 16 16 17 17 18 18 19 19 19 19 19 20 20 20 20 20 20 20 21 18 12 16 23 22 22 26 25
12 12 11 11 10 10 10 10 9 9 9 9 9 9 9 10 10 11 11 12 13 13 13 13 13 12 12 12 12 12 14 15 15 15 15 16 16 16 17 18 18 19 19 19 19 20 20 20 21 20 20 20 20 20 21 21 17 16 22 23 22 25 25
12 12 11 10 10 10 10 10 9 10 10 10 10 10 10 10 11 12 12 13 14 14 14 14 13 12 12 13 13 13 13 14 15 15 15 16 16 17 17 17 18 19 19 19 20 20 20 21 22 22 21 20 21 21 21 22 21 18 21 25 24 25 25
12 12 11 11 11 11 11 10 10 10 10 10 10 11 11 11 12 12 13 14 14 15 15 15 14 13 13 13 13 13 13 14 15 15 16 16 17 17 17 18 18 19 20 20 21 20 21 22 23 22 22 21 21 22 22 21 22 21 22 26 26 25 25
12 12 11 11 11 11 11 11 11 11 11 11 11 11 11 12 12 13 13 14 15 16 16 16 15 15 13 13 13 13 14 14 15 15 16 17 17 18 18 18 18 19 20 21 21 22 22 24 24 23 23 23 22 23 23 22 22 23 24 25 26 25 25
12 12 12 12 12 12 11 11 12 12 12 12 11 11 11 12 13 14 14 15 16 16 17 17 17 15 14 13 13 13 14 15 15 16 16 17 17 18 18 18 18 19 20 21 22 23 24 25 26 25 25 26 24 24 24 23 23 23 24 25 27 27 26
13 12 12 12 12 12 12 12 12 12 12 12 12 12 11 12 13 14 15 16 16 17 18 18 17 16 15 14 13 13 14 15 15 15 16 17 17 18 18 18 18 19 20 21 22 23 24 25 26 27 27 26 25 25 25 24 24 23 24 25 26 27 27
12 12 12 13 13 12 12 12 13 12 12 12 12 11 12 12 12 13 14 16 17 18 18 19 18 17 15 13 13 13 14 15 15 16 17 17 17 18 19 18 18 20 21 22 23 24 25 26 27 27 27 26 25 25 25 25 24 23 23 24 24 25 26
12 13 13 13 13 13 13 13 13 13 12 12 11 11 11 12 12 13 14 15 16 18 18 18 18 18 16 13 12 14 15 15 16 17 17 17 18 19 20 19 19 20 21 23 25 25 25 27 28 27 26 25 25 25 25 25 24 23 22 22 23 24 25
13 13 13 14 14 14 14 14 13 13 12 12 11 11 11 12 12 13 14 14 16 18 20 18 17 17 18 16 13 13 14 15 16 17 17 18 18 20 21 20 20 21 22 24 26 27 27 29 29 27 27 27 27 27 26 25 24 24 23 22 23 24 24
13 13 14 14 14 14 14 13 13 13 12 12 11 11 11 12 12 13 14 15 15 18 22 20 15 15 16 16 14 13 13 15 16 17 18 18 19 20 21 21 21 22 23 25 27 29 31 33 31 28 27 28 29 29 27 25 24 23 22 21 22 23 23
14 14 14 13 14 13 13 13 13 12 12 12 11 11 11 11 11 13 14 16 16 19 22 20 16 15 16 16 15 13 13 14 16 17 18 18 19 21 22 23 23 23 23 25 27 29 33 35 33 29 28 28 26 25 25 25 26 24 21 21 22 23 23
14 14 14 14 14 13 13 13 13 12 12 12 11 11 11 10 11 12 14 16 17 20 24 20 15 15 16 16 16 14 13 14 16 17 18 18 19 21 23 25 24 23 23 25 28 29 32 35 33 29 29 28 26 23 22 23 25 25 24 24 23 23 24
14 14 13 13 13 13 13 13 13 12 12 12 11 11 11 10 11 11 13 16 18 22 25 21 15 14 15 15 16 14 13 14 16 17 18 18 19 21 24 26 24 23 25 27 29 31 32 32 31 28 28 28 26 25 23 22 23 25 25 25 25 25 26
13 13 13 13 13 13 13 13 13 12 12 11 11 11 11 11 11 12 13 15 17 22 26 23 16 13 13 13 15 14 13 13 14 16 17 17 18 20 23 25 24 24 26 28 33 35 32 28 27 27 28 28 27 26 25 23 25 27 26 25 27 29 29
13 12 12 12 12 12 12 12 13 12 12 11 10 10 10 11 11 12 13 14 16 20 25 25 19 15 13 13 13 13 12 12 13 14 15 17 17 18 21 23 23 24 26 29 36 39 33 26 25 26 27 27 27 26 25 24 27 30 30 29 30 31 30
12 12 12 11 11 11 12 12 13 12 12 11 10 10 11 11 12 12 12 13 15 18 23 25 22 17 13 12 13 12 11 12 13 13 14 17 17 15 18 22 23 23 25 30 36 41 35 26 25 27 27 27 27 26 25 26 29 31 33 33 31 30 31
12 11 11 11 11 11 11 11 12 12 11 11 10 10 11 12 13 13 12 12 13 16 21 24 24 21 16 12 13 12 10 11 14 14 14 16 16 15 17 22 24 23 24 29 35 39 36 28 26 28 28 27 28 28 27 29 30 31 33 35 34 31 32
11 10 10 10 10 11 11 11 11 11 11 10 10 10 11 11 13 14 14 13 12 13 18 23 24 22 18 14 13 13 11 11 14 15 14 15 16 15 16 20 25 26 26 28 33 38 38 32 27 28 28 28 29 29 29 31 33 35 36 38 38 36 35
10 10 10 10 10 10 11 11 10 10 10 10 10 9 10 10 11 12 13 14 14 12 15 20 23 23 20 17 15 13 12 12 13 15 15 15 15 16 15 17 24 28 28 27 30 35 38 36 30 27 28 27 27 30 30 30 34 39 39 40 40 38 36
10 10 10 10 10 10 10 10 9 9 9 9 10 10 9 10 10 10 10 12 14 14 13 17 21 22 21 18 16 14 13 13 14 14 14 15 15 16 16 17 21 27 28 26 27 30 35 36 31 27 29 29 28 31 32 30 34 37 37 38 37 36 35
11 10 10 11 11 11 11 10 9 9 9 9 9 9 9 9 9 9 8 9 11 13 14 15 17 20 21 21 19 17 15 14 15 14 13 14 15 16 17 17 20 27 29 26 24 25 30 33 30 28 32 33 32 33 33 31 34 36 35 37 36 36 37
11 11 11 11 11 11 11 10 10 10 10 10 9 8 8 8 8 8 8 7 8 8 10 13 15 16 18 20 21 20 18 16 15 13 12 14 15 16 17 18 20 26 29 26 23 22 25 28 29 29 32 34 34 34 33 33 35 35 35 37 36 35 38
12 12 12 12 12 11 11 10 10 10 9 9 9 8 8 7 7 7 7 8 8 6 6 9 13 15 15 17 19 21 20 18 17 14 12 12 14 15 17 18 21 25 28 27 23 22 22 24 26 30 32 32 32 31 30 33 37 35 34 35 34 34 37
13 13 13 12 11 11 10 9 9 8 8 8 8 8 7 7 7 7 7 7 7 7 6 6 10 14 14 14 16 20 20 19 18 16 13 11 12 14 17 20 22 23 25 26 24 21 22 24 25 28 31 31 30 28 28 32 36 36 35 34 33 34 36
Wind_Direction
97 103 106 100 92 85 80 70 64 62 54 51 47 41 37 31 27 22 18 14 7 2 357 353 349 346 343 338 337 339 335 331 329 323 319 320 315 310 310 301 293 289 283 283 283 279 288 297 298 294 284 273 265 262 263 262 260 260 258 256 255 248 245
105 114 115 105 93 83 75 70 68 64 58 55 47 40 34 28 27 23 18 15 9 3 358 353 347 345 343 338 337 338 336 332 328 325 325 326 322 319 318 313 308 304 296 292 288 282 282 290 294 298 301 289 269 270 270 257 251 253 251 250 248 243 243
116 115 112 100 83 76 74 71 69 62 57 51 42 36 28 22 22 19 15 11 8 3 358 353 348 346 344 339 337 335 335 334 330 329 330 328 325 324 324 320 316 313 309 304 301 298 293 286 285 293 301 298 289 285 274 258 253 254 255 253 244 240 244
100 99 97 87 74 74 74 70 68 64 57 48 39 33 25 20 21 19 16 14 12 7 1 357 351 348 345 341 338 335 337 338 333 330 329 327 326 324 323 322 320 320 318 314 313 313 307 297 296 299 301 300 301 299 290 277 269 261 259 257 248 243 245
78 82 81 79 78 78 75 72 71 67 60 49 40 33 24 22 23 22 20 16 14 9 3 360 354 350 348 345 341 339 340 340 336 333 330 329 329 324 321 321 319 319 318 317 319 318 314 310 306 300 302 304 302 300 298 293 284 273 263 259 255 251 248
81 84 84 83 83 81 76 76 74 67 63 53 43 36 27 25 27 24 23 19 15 11 7 3 359 356 355 351 348 348 346 345 344 341 335 332 331 327 323 321 320 319 317 318 320 319 318 317 313 306 305 307 304 300 299 295 289 283 272 263 258 254 252
91 90 90 87 84 83 80 78 75 71 68 59 48 41 31 29 33 28 25 23 18 14 10 7 4 2 1 358 355 356 353 349 348 346 340 338 338 335 331 326 323 322 319 318 318 317 318 319 318 319 316 311 309 305 300 298 295 289 282 274 265 259 257
94 93 90 86 83 83 82 79 76 72 71 64 53 45 38 37 36 31 29 24 19 16 13 10 8 5 4 2 1 359 356 352 350 348 345 344 343 341 338 334 330 326 324 324 324 322 322 321 318 319 318 315 312 308 303 301 297 290 288 287 279 270 263
94 93 90 87 86 84 83 81 77 73 72 68 58 48 45 42 37 31 28 23 19 17 14 12 10 8 7 7 6 2 358 355 352 351 349 347 346 344 342 340 336 333 332 333 332 329 327 324 320 317 315 312 311 312 310 305 300 295 295 296 292 281 268
91 91 91 90 89 87 84 81 78 75 71 67 61 53 47 42 36 31 27 23 21 18 16 15 12 10 9 10 8 4 1 358 355 354 353 351 349 347 345 343 339 336 336 336 333 331 329 327 324 321 317 314 315 315 311 306 303 302 302 300 298 294 282
91 91 91 91 90 89 86 82 79 74 70 67 62 55 49 42 36 31 28 25 21 18 17 15 14 13 13 12 10 7 4 0 358 358 356 354 351 349 346 345 342 340 340 338 334 333 331 330 328 326 323 319 317 314 312 312 306 305 308 306 303 301 294
93 91 91 92 91 89 86 84 82 77 72 66 61 55 48 42 37 32 29 26 22 20 18 15 15 15 16 14 11 9 6 3 1 359 357 355 352 349 348 346 345 346 345 342 339 338 337 335 334 332 328 324 320 316 312 308 301 303 307 308 308 307 303
93 91 91 91 91 91 90 88 84 79 73 66 61 56 50 44 40 36 33 30 25 21 19 18 16 16 18 17 14 10 6 5 3 0 357 356 353 351 349 348 348 349 349 345 342 342 341 340 340 336 332 327 323 319 315 310 302 301 304 303 303 304 304
95 93 93 91 90 92 92 90 85 80 75 69 64 59 53 48 43 40 38 33 29 24 22 19 16 16 17 15 15 13 8 6 5 1 358 356 355 354 351 350 350 350 350 348 345 344 343 343 342 337 334 330 325 322 320 315 308 302 304 305 303 300 300
97 97 94 89 88 90 91 90 87 84 78 71 67 62 56 52 47 45 41 35 31 27 23 20 16 15 14 12 14 14 9 7 5 2 0 358 356 356 353 352 351 351 351 349 348 347 345 344 342 337 334 332 325 321 320 315 309 305 304 306 305 302 300
100 99 93 88 87 88 88 89 89 86 82 76 71 65 60 56 51 46 42 37 33 27 24 21 17 14 13 11 12 11 10 8 5 3 2 359 358 357 355 354 354 353 352 350 349 349 346 344 341 336 332 330 323 319 317 314 309 305 303 303 303 302 301
103 99 93 90 88 88 87 88 87 85 83 79 74 69 65 60 54 48 43 38 33 28 23 19 16 15 14 11 10 10 10 8 7 7 4 1 1 359 358 356 356 355 353 351 349 347 345 343 340 336 332 328 323 319 316 313 308 304 302 300 300 299 298
105 99 95 92 90 88 88 89 87 85 83 80 76 72 67 61 56 51 45 39 33 28 23 18 15 15 12 10 11 12 12 10 9 9 7 5 3 2 0 358 357 356 354 352 350 346 344 342 339 335 331 327 323 320 317 313 309 305 302 299 299 299 297
104 101 98 95 91 90 90 89 87 85 84 81 78 75 70 64 58 53 47 41 34 28 22 19 17 15 10 10 14 15 14 12 11 11 10 9 7 5 3 360 357 357 355 352 349 346 343 340 337 332 329 327 325 322 318 315 312 308 304 301 300 301 299
105 102 99 97 94 92 90 89 87 84 83 82 80 76 72 67 61 55 50 43 36 29 23 22 22 18 12 12 17 19 16 14 13 14 12 10 9 7 4 1 358 356 354 351 348 345 342 339 335 330 327 326 324 322 319 316 314 310 306 304 302 301 301
106 104 102 99 96 93 91 88 86 84 82 80 78 76 74 70 64 57 51 45 38 31 27 26 28 25 17 13 14 15 18 17 16 16 14 12 11 8 5 2 357 354 351 347 345 342 340 338 334 329 327 325 321 318 316 313 311 309 306 304 304 303 302
109 107 105 101 97 95 92 88 86 85 83 81 78 77 74 70 65 58 52 47 39 33 30 31 34 31 24 20 14 11 18 21 18 17 16 13 12 9 5 0 355 352 347 343 343 340 335 335 334 329 326 322 319 317 314 313 313 310 307 306 307 308 306
114 110 107 103 100 97 93 90 88 86 84 82 79 76 74 70 65 59 52 46 40 34 31 33 42 44 37 31 22 14 19 23 21 20 17 14 12 8 5 0 354 351 348 345 343 338 333 335 336 333 330 325 322 321 318 318 319 316 313 313 315 314 309
117 113 110 106 103 100 96 93 90 87 84 81 78 74 73 71 65 61 54 47 41 34 30 34 46 49 45 39 30 22 22 25 24 22 19 15 12 8 4 1 357 354 352 350 345 339 335 337 338 339 339 337 334 330 326 326 328 327 325 322 318 314 308
119 115 113 110 106 103 101 97 92 88 84 79 76 73 71 71 67 63 56 48 42 34 30 34 44 47 46 44 37 28 24 28 26 23 20 16 13 10 5 1 359 357 355 353 349 343 339 338 340 342 343 342 341 340 337 335 335 333 328 323 318 316 312
118 117 114 112 110 106 103 99 94 90 86 80 76 73 70 69 66 63 58 50 43 34 30 33 41 45 45 44 40 34 28 30 29 23 20 17 14 12 7 2 1 360 358 356 353 348 343 340 341 342 343 343 342 344 344 343 341 337 330 323 318 317 317
119 117 115 113 111 108 104 102 98 93 89 83 78 75 71 68 65 63 59 53 45 36 31 32 39 45 45 42 41 40 34 31 30 25 21 19 17 13 9 7 5 4 2 359 357 354 349 344 344 344 344 344 342 343 344 344 344 343 338 330 324 320 320
121 119 117 114 111 109 106 104 100 95 92 87 81 77 72 68 66 65 61 57 49 38 32 33 38 44 45 43 42 42 36 29 28 28 24 22 18 15 14 14 11 10 9 4 3 3 358 350 349 348 346 345 343 341 342 342 342 343 342 339 333 328 326
122 120 118 114 111 110 107 104 101 98 96 92 87 82 76 70 66 65 63 59 52 41 33 33 38 41 44 43 39 35 32 27 24 26 26 22 21 24 26 23 19 16 12 8 7 9 6 0 357 355 351 348 347 345 343 342 340 341 346 348 345 339 337
122 121 119 115 114 112 107 103 102 101 101 99 94 88 82 74 68 65 62 59 55 44 34 33 37 40 42 41 31 21 22 26 24 24 25 22 25 30 26 22 20 17 9 6 9 11 12 10 5 1 357 353 352 351 350 348 345 345 351 356 356 351 349
120 121 120 119 116 111 107 103 101 102 103 103 100 94 89 83 75 69 63 58 56 49 37 33 36 39 40 39 30 17 15 23 23 22 23 20 23 26 17 13 17 16 8 6 10 14 15 14 9 4 0 357 357 356 353 352 353 354 357 2 4 360 357
124 125 124 120 115 110 107 104 104 107 108 106 102 96 93 91 84 77 70 61 55 53 43 34 34 37 37 37 33 23 16 17 17 19 21 18 18 20 15 10 13 14 11 8 10 14 15 14 12 7 3 0 358 356 353 352 356 359 0 2 4 0 357
129 129 124 118 112 107 105 105 107 111 108 105 102 97 94 93 88 82 78 67 58 55 48 37 33 34 33 33 32 28 20 11 5 8 16 17 16 16 15 11 9 10 11 8 6 10 13 13 12 9 7 5 358 355 356 357 358 1 1 0 1 0 359
129 126 120 115 110 106 105 107 108 108 105 102 104 103 99 95 90 83 79 76 67 56 47 38 32 30 30 29 30 29 23 9 0 1 11 18 17 14 13 10 5 6 8 5 1 3 8 10 9 8 8 9 5 4 5 4 2 2 3 2 3 3 4
125 121 117 114 111 108 107 107 106 106 107 106 105 104 100 94 91 86 79 75 73 58 40 30 25 23 24 24 25 27 24 16 9 6 9 14 15 12 9 5 1 3 5 3 359 358 1 4 5 4 4 5 5 7 9 9 6 5 4 4 5 5 6
121 118 116 115 113 111 110 110 110 110 112 112 107 103 99 94 89 86 79 69 63 56 39 23 16 15 14 14 17 20 20 19 17 9 3 7 10 8 5 358 357 1 2 0 359 358 357 358 359 360 359 357 357 359 4 9 9 6 4 4 5 6 9
120 119 118 116 114 114 114 115 116 115 114 111 106 100 95 92 84 77 73 67 57 48 40 25 14 13 12 7 8 11 11 13 15 9 3 2 0 358 358 355 355 358 359 358 360 1 358 356 357 358 358 357 358 359 3 7 7 5 4 5 5 6 9